Year,Month,Day,Hour,Minute,Value (Times are PST for temperature in C)
2009,08,03,00,00,16.40
2009,08,03,00,01,16.40
2009,08,03,00,02,16.40
2009,08,03,00,03,16.40
2009,08,03,00,04,16.40
2009,08,03,00,05,16.40
2009,08,03,00,06,16.40
2009,08,03,00,07,16.40
2009,08,03,00,08,16.40
2009,08,03,00,09,16.40
2009,08,03,00,10,16.40
2009,08,03,00,11,16.30
2009,08,03,00,12,16.30
2009,08,03,00,13,16.30
2009,08,03,00,14,16.30
2009,08,03,00,15,16.30
2009,08,03,00,16,16.30
2009,08,03,00,17,16.30
2009,08,03,00,18,16.20
2009,08,03,00,19,16.20
2009,08,03,00,20,16.20
2009,08,03,00,21,16.20
2009,08,03,00,22,16.10
2009,08,03,00,23,16.10
2009,08,03,00,24,16.10
2009,08,03,00,25,16.10
2009,08,03,00,26,16.00
2009,08,03,00,27,16.00
2009,08,03,00,28,16.00
2009,08,03,00,29,15.90
2009,08,03,00,30,15.90
2009,08,03,00,31,15.90
2009,08,03,00,32,15.90
2009,08,03,00,33,15.90
2009,08,03,00,34,15.90
2009,08,03,00,35,15.80
2009,08,03,00,36,15.80
2009,08,03,00,37,15.80
2009,08,03,00,38,15.80
2009,08,03,00,39,15.80
2009,08,03,00,40,15.80
2009,08,03,00,41,15.70
2009,08,03,00,42,15.70
2009,08,03,00,43,15.70
2009,08,03,00,44,15.70
2009,08,03,00,45,15.70
2009,08,03,00,46,15.70
2009,08,03,00,47,15.70
2009,08,03,00,48,15.70
2009,08,03,00,49,15.70
2009,08,03,00,50,15.70
2009,08,03,00,51,15.70
2009,08,03,00,52,15.70
2009,08,03,00,53,15.70
2009,08,03,00,54,15.70
2009,08,03,00,55,15.60
2009,08,03,00,56,15.60
2009,08,03,00,57,15.60
2009,08,03,00,58,15.60
2009,08,03,00,59,15.60
2009,08,03,01,00,15.60
2009,08,03,01,01,15.60
2009,08,03,01,02,15.60
2009,08,03,01,03,15.60
2009,08,03,01,04,15.50
2009,08,03,01,05,15.50
2009,08,03,01,06,15.50
2009,08,03,01,07,15.50
2009,08,03,01,08,15.50
2009,08,03,01,09,15.40
2009,08,03,01,10,15.40
2009,08,03,01,11,15.40
2009,08,03,01,12,15.40
2009,08,03,01,13,15.40
2009,08,03,01,14,15.40
2009,08,03,01,15,15.40
2009,08,03,01,16,15.40
2009,08,03,01,17,15.40
2009,08,03,01,18,15.40
2009,08,03,01,19,15.40
2009,08,03,01,20,15.40
2009,08,03,01,21,15.40
2009,08,03,01,22,15.30
2009,08,03,01,23,15.30
2009,08,03,01,24,15.30
2009,08,03,01,25,15.30
2009,08,03,01,26,15.30
2009,08,03,01,27,15.30
2009,08,03,01,28,15.30
2009,08,03,01,29,15.30
2009,08,03,01,30,15.30
2009,08,03,01,31,15.30
2009,08,03,01,32,15.30
2009,08,03,01,33,15.20
2009,08,03,01,34,15.20
2009,08,03,01,35,15.20
2009,08,03,01,36,15.20
2009,08,03,01,37,15.20
2009,08,03,01,38,15.20
2009,08,03,01,39,15.20
2009,08,03,01,40,15.20
2009,08,03,01,41,15.20
2009,08,03,01,42,15.10
2009,08,03,01,43,15.20
2009,08,03,01,44,15.10
2009,08,03,01,45,15.10
2009,08,03,01,46,15.10
2009,08,03,01,47,15.10
2009,08,03,01,48,15.00
2009,08,03,01,49,15.00
2009,08,03,01,50,15.00
2009,08,03,01,51,15.00
2009,08,03,01,52,15.00
2009,08,03,01,53,15.00
2009,08,03,01,54,15.00
2009,08,03,01,55,15.00
2009,08,03,01,56,15.00
2009,08,03,01,57,15.00
2009,08,03,01,58,15.00
2009,08,03,01,59,15.00
2009,08,03,02,00,15.00
2009,08,03,02,01,15.00
2009,08,03,02,02,15.00
2009,08,03,02,03,15.00
2009,08,03,02,04,15.00
2009,08,03,02,05,15.00
2009,08,03,02,06,15.00
2009,08,03,02,07,15.00
2009,08,03,02,08,15.00
2009,08,03,02,09,15.00
2009,08,03,02,10,15.00
2009,08,03,02,11,15.00
2009,08,03,02,12,15.00
2009,08,03,02,13,15.00
2009,08,03,02,14,15.00
2009,08,03,02,15,15.00
2009,08,03,02,16,15.00
2009,08,03,02,17,15.00
2009,08,03,02,18,15.00
2009,08,03,02,19,15.00
2009,08,03,02,20,15.00
2009,08,03,02,21,15.00
2009,08,03,02,22,15.00
2009,08,03,02,23,15.00
2009,08,03,02,24,15.00
2009,08,03,02,25,15.00
2009,08,03,02,26,15.00
2009,08,03,02,27,15.00
2009,08,03,02,28,15.00
2009,08,03,02,29,15.00
2009,08,03,02,30,15.00
2009,08,03,02,31,15.00
2009,08,03,02,32,15.00
2009,08,03,02,33,15.00
2009,08,03,02,34,15.00
2009,08,03,02,35,15.00
2009,08,03,02,36,14.90
2009,08,03,02,37,14.90
2009,08,03,02,38,14.90
2009,08,03,02,39,14.90
2009,08,03,02,40,14.90
2009,08,03,02,41,14.80
2009,08,03,02,42,14.80
2009,08,03,02,43,14.80
2009,08,03,02,44,14.80
2009,08,03,02,45,14.80
2009,08,03,02,46,14.80
2009,08,03,02,47,14.80
2009,08,03,02,48,14.80
2009,08,03,02,49,14.80
2009,08,03,02,50,14.80
2009,08,03,02,51,14.80
2009,08,03,02,52,14.80
2009,08,03,02,53,14.80
2009,08,03,02,54,14.70
2009,08,03,02,55,14.70
2009,08,03,02,56,14.70
2009,08,03,02,57,14.70
2009,08,03,02,58,14.70
2009,08,03,02,59,14.70
2009,08,03,03,00,14.70
2009,08,03,03,01,14.70
2009,08,03,03,02,14.60
2009,08,03,03,03,14.70
2009,08,03,03,04,14.70
2009,08,03,03,05,14.70
2009,08,03,03,06,14.70
2009,08,03,03,07,14.70
2009,08,03,03,08,14.70
2009,08,03,03,09,14.70
2009,08,03,03,10,14.70
2009,08,03,03,11,14.70
2009,08,03,03,12,14.70
2009,08,03,03,13,14.70
2009,08,03,03,14,14.70
2009,08,03,03,15,14.70
2009,08,03,03,16,14.70
2009,08,03,03,17,14.70
2009,08,03,03,18,14.70
2009,08,03,03,19,14.70
2009,08,03,03,20,14.60
2009,08,03,03,21,14.60
2009,08,03,03,22,14.60
2009,08,03,03,23,14.60
2009,08,03,03,24,14.60
2009,08,03,03,25,14.60
2009,08,03,03,26,14.60
2009,08,03,03,27,14.60
2009,08,03,03,28,14.70
2009,08,03,03,29,14.70
2009,08,03,03,30,14.70
2009,08,03,03,31,14.70
2009,08,03,03,32,14.70
2009,08,03,03,33,14.70
2009,08,03,03,34,14.70
2009,08,03,03,35,14.70
2009,08,03,03,36,14.70
2009,08,03,03,37,14.70
2009,08,03,03,38,14.70
2009,08,03,03,39,14.60
2009,08,03,03,40,14.60
2009,08,03,03,41,14.60
2009,08,03,03,42,14.50
2009,08,03,03,43,14.50
2009,08,03,03,44,14.50
2009,08,03,03,45,14.50
2009,08,03,03,46,14.40
2009,08,03,03,47,14.40
2009,08,03,03,48,14.40
2009,08,03,03,49,14.40
2009,08,03,03,50,14.40
2009,08,03,03,51,14.40
2009,08,03,03,52,14.40
2009,08,03,03,53,14.30
2009,08,03,03,54,14.30
2009,08,03,03,55,14.30
2009,08,03,03,56,14.30
2009,08,03,03,57,14.30
2009,08,03,03,58,14.30
2009,08,03,03,59,14.20
2009,08,03,04,00,14.20
2009,08,03,04,01,14.20
2009,08,03,04,02,14.20
2009,08,03,04,03,14.20
2009,08,03,04,04,14.20
2009,08,03,04,05,14.20
2009,08,03,04,06,14.20
2009,08,03,04,07,14.20
2009,08,03,04,08,14.10
2009,08,03,04,09,14.10
2009,08,03,04,10,14.10
2009,08,03,04,11,14.10
2009,08,03,04,12,14.10
2009,08,03,04,13,14.10
2009,08,03,04,14,14.10
2009,08,03,04,15,14.10
2009,08,03,04,16,14.10
2009,08,03,04,17,14.00
2009,08,03,04,18,14.00
2009,08,03,04,19,14.00
2009,08,03,04,20,14.00
2009,08,03,04,21,14.00
2009,08,03,04,22,14.00
2009,08,03,04,23,14.00
2009,08,03,04,24,13.90
2009,08,03,04,25,13.90
2009,08,03,04,26,13.90
2009,08,03,04,27,13.90
2009,08,03,04,28,13.90
2009,08,03,04,29,13.90
2009,08,03,04,30,13.90
2009,08,03,04,31,13.90
2009,08,03,04,32,13.90
2009,08,03,04,33,13.80
2009,08,03,04,34,13.80
2009,08,03,04,35,13.80
2009,08,03,04,36,13.80
2009,08,03,04,37,13.80
2009,08,03,04,38,13.80
2009,08,03,04,39,13.80
2009,08,03,04,40,13.80
2009,08,03,04,41,13.80
2009,08,03,04,42,13.80
2009,08,03,04,43,13.80
2009,08,03,04,44,13.70
2009,08,03,04,45,13.70
2009,08,03,04,46,13.70
2009,08,03,04,47,13.70
2009,08,03,04,48,13.70
2009,08,03,04,49,13.70
2009,08,03,04,50,13.70
2009,08,03,04,51,13.70
2009,08,03,04,52,13.70
2009,08,03,04,53,13.70
2009,08,03,04,54,13.70
2009,08,03,04,55,13.70
2009,08,03,04,56,13.70
2009,08,03,04,57,13.70
2009,08,03,04,58,13.70
2009,08,03,04,59,13.70
2009,08,03,05,00,13.70
2009,08,03,05,01,13.60
2009,08,03,05,02,13.60
2009,08,03,05,03,13.60
2009,08,03,05,04,13.60
2009,08,03,05,05,13.60
2009,08,03,05,06,13.60
2009,08,03,05,07,13.60
2009,08,03,05,08,13.60
2009,08,03,05,09,13.50
2009,08,03,05,10,13.50
2009,08,03,05,11,13.50
2009,08,03,05,12,13.50
2009,08,03,05,13,13.50
2009,08,03,05,14,13.50
2009,08,03,05,15,13.50
2009,08,03,05,16,13.50
2009,08,03,05,17,13.50
2009,08,03,05,18,13.50
2009,08,03,05,19,13.40
2009,08,03,05,20,13.40
2009,08,03,05,21,13.40
2009,08,03,05,22,13.40
2009,08,03,05,23,13.40
2009,08,03,05,24,13.40
2009,08,03,05,25,13.40
2009,08,03,05,26,13.40
2009,08,03,05,27,13.40
2009,08,03,05,28,13.40
2009,08,03,05,29,13.40
2009,08,03,05,30,13.40
2009,08,03,05,31,13.40
2009,08,03,05,32,13.40
2009,08,03,05,33,13.40
2009,08,03,05,34,13.40
2009,08,03,05,35,13.30
2009,08,03,05,36,13.30
2009,08,03,05,37,13.30
2009,08,03,05,38,13.30
2009,08,03,05,39,13.30
2009,08,03,05,40,13.30
2009,08,03,05,41,13.30
2009,08,03,05,42,13.30
2009,08,03,05,43,13.40
2009,08,03,05,44,13.40
2009,08,03,05,45,13.40
2009,08,03,05,46,13.40
2009,08,03,05,47,13.40
2009,08,03,05,48,13.40
2009,08,03,05,49,13.40
2009,08,03,05,50,13.40
2009,08,03,05,51,13.40
2009,08,03,05,52,13.40
2009,08,03,05,53,13.40
2009,08,03,05,54,13.40
2009,08,03,05,55,13.40
2009,08,03,05,56,13.40
2009,08,03,05,57,13.40
2009,08,03,05,58,13.30
2009,08,03,05,59,13.30
2009,08,03,06,00,13.30
2009,08,03,06,01,13.30
2009,08,03,06,02,13.30
2009,08,03,06,03,13.30
2009,08,03,06,04,13.30
2009,08,03,06,05,13.20
2009,08,03,06,06,13.20
2009,08,03,06,07,13.20
2009,08,03,06,08,13.20
2009,08,03,06,09,13.20
2009,08,03,06,10,13.20
2009,08,03,06,11,13.20
2009,08,03,06,12,13.20
2009,08,03,06,13,13.20
2009,08,03,06,14,13.20
2009,08,03,06,15,13.20
2009,08,03,06,16,13.20
2009,08,03,06,17,13.20
2009,08,03,06,18,13.20
2009,08,03,06,19,13.20
2009,08,03,06,20,13.20
2009,08,03,06,21,13.20
2009,08,03,06,22,13.20
2009,08,03,06,23,13.20
2009,08,03,06,24,13.20
2009,08,03,06,25,13.20
2009,08,03,06,26,13.20
2009,08,03,06,27,13.10
2009,08,03,06,28,13.10
2009,08,03,06,29,13.10
2009,08,03,06,30,13.10
2009,08,03,06,31,13.10
2009,08,03,06,32,13.20
2009,08,03,06,33,13.20
2009,08,03,06,34,13.20
2009,08,03,06,35,13.20
2009,08,03,06,36,13.20
2009,08,03,06,37,13.20
2009,08,03,06,38,13.20
2009,08,03,06,39,13.20
2009,08,03,06,40,13.20
2009,08,03,06,41,13.20
2009,08,03,06,42,13.20
2009,08,03,06,43,13.20
2009,08,03,06,44,13.20
2009,08,03,06,45,13.20
2009,08,03,06,46,13.20
2009,08,03,06,47,13.20
2009,08,03,06,48,13.20
2009,08,03,06,49,13.20
2009,08,03,06,50,13.20
2009,08,03,06,51,13.20
2009,08,03,06,52,13.20
2009,08,03,06,53,13.20
2009,08,03,06,54,13.20
2009,08,03,06,55,13.20
2009,08,03,06,56,13.20
2009,08,03,06,57,13.20
2009,08,03,06,58,13.20
2009,08,03,06,59,13.30
2009,08,03,07,00,13.30
2009,08,03,07,01,13.30
2009,08,03,07,02,13.30
2009,08,03,07,03,13.30
2009,08,03,07,04,13.30
2009,08,03,07,05,13.30
2009,08,03,07,06,13.30
2009,08,03,07,07,13.30
2009,08,03,07,08,13.30
2009,08,03,07,09,13.30
2009,08,03,07,10,13.30
2009,08,03,07,11,13.30
2009,08,03,07,12,13.30
2009,08,03,07,13,13.30
2009,08,03,07,14,13.30
2009,08,03,07,15,13.30
2009,08,03,07,16,13.30
2009,08,03,07,17,13.30
2009,08,03,07,18,13.30
2009,08,03,07,19,13.30
2009,08,03,07,20,13.30
2009,08,03,07,21,13.40
2009,08,03,07,22,13.40
2009,08,03,07,23,13.40
2009,08,03,07,24,13.50
2009,08,03,07,25,13.50
2009,08,03,07,26,13.50
2009,08,03,07,27,13.50
2009,08,03,07,28,13.60
2009,08,03,07,29,13.60
2009,08,03,07,30,13.60
2009,08,03,07,31,13.60
2009,08,03,07,32,13.70
2009,08,03,07,33,13.70
2009,08,03,07,34,13.70
2009,08,03,07,35,13.70
2009,08,03,07,36,13.70
2009,08,03,07,37,13.80
2009,08,03,07,38,13.80
2009,08,03,07,39,13.80
2009,08,03,07,40,13.80
2009,08,03,07,41,13.80
2009,08,03,07,42,13.90
2009,08,03,07,43,13.90
2009,08,03,07,44,13.90
2009,08,03,07,45,14.00
2009,08,03,07,46,14.00
2009,08,03,07,47,14.00
2009,08,03,07,48,14.00
2009,08,03,07,49,14.10
2009,08,03,07,50,14.10
2009,08,03,07,51,14.10
2009,08,03,07,52,14.10
2009,08,03,07,53,14.20
2009,08,03,07,54,14.20
2009,08,03,07,55,14.20
2009,08,03,07,56,14.20
2009,08,03,07,57,14.30
2009,08,03,07,58,14.30
2009,08,03,07,59,14.30
2009,08,03,08,00,14.30
2009,08,03,08,01,14.40
2009,08,03,08,02,14.40
2009,08,03,08,03,14.50
2009,08,03,08,04,14.50
2009,08,03,08,05,14.60
2009,08,03,08,06,14.60
2009,08,03,08,07,14.60
2009,08,03,08,08,14.70
2009,08,03,08,09,14.70
2009,08,03,08,10,14.80
2009,08,03,08,11,14.80
2009,08,03,08,12,14.90
2009,08,03,08,13,15.00
2009,08,03,08,14,15.00
2009,08,03,08,15,15.00
2009,08,03,08,16,15.00
2009,08,03,08,17,15.10
2009,08,03,08,18,15.20
2009,08,03,08,19,15.20
2009,08,03,08,20,15.30
2009,08,03,08,21,15.30
2009,08,03,08,22,15.40
2009,08,03,08,23,15.50
2009,08,03,08,24,15.50
2009,08,03,08,25,15.60
2009,08,03,08,26,15.60
2009,08,03,08,27,15.60
2009,08,03,08,28,15.70
2009,08,03,08,29,15.70
2009,08,03,08,30,15.70
2009,08,03,08,31,15.80
2009,08,03,08,32,15.80
2009,08,03,08,33,15.80
2009,08,03,08,34,15.80
2009,08,03,08,35,15.90
2009,08,03,08,36,15.90
2009,08,03,08,37,15.90
2009,08,03,08,38,15.90
2009,08,03,08,39,15.90
2009,08,03,08,40,16.00
2009,08,03,08,41,16.00
2009,08,03,08,42,16.00
2009,08,03,08,43,16.10
2009,08,03,08,44,16.10
2009,08,03,08,45,16.20
2009,08,03,08,46,16.20
2009,08,03,08,47,16.30
2009,08,03,08,48,16.30
2009,08,03,08,49,16.30
2009,08,03,08,50,16.40
2009,08,03,08,51,16.50
2009,08,03,08,52,16.60
2009,08,03,08,53,16.60
2009,08,03,08,54,16.70
2009,08,03,08,55,16.70
2009,08,03,08,56,16.80
2009,08,03,08,57,16.80
2009,08,03,08,58,16.80
2009,08,03,08,59,16.90
2009,08,03,09,00,16.90
2009,08,03,09,01,16.90
2009,08,03,09,02,17.00
2009,08,03,09,03,17.00
2009,08,03,09,04,17.00
2009,08,03,09,05,17.10
2009,08,03,09,06,17.10
2009,08,03,09,07,17.10
2009,08,03,09,08,17.10
2009,08,03,09,09,17.20
2009,08,03,09,10,17.20
2009,08,03,09,11,17.20
2009,08,03,09,12,17.20
2009,08,03,09,13,17.20
2009,08,03,09,14,17.30
2009,08,03,09,15,17.30
2009,08,03,09,16,17.30
2009,08,03,09,17,17.30
2009,08,03,09,18,17.40
2009,08,03,09,19,17.40
2009,08,03,09,20,17.40
2009,08,03,09,21,17.40
2009,08,03,09,22,17.50
2009,08,03,09,23,17.50
2009,08,03,09,24,17.60
2009,08,03,09,25,17.60
2009,08,03,09,26,17.60
2009,08,03,09,27,17.60
2009,08,03,09,28,17.70
2009,08,03,09,29,17.70
2009,08,03,09,30,17.70
2009,08,03,09,31,17.70
2009,08,03,09,32,17.80
2009,08,03,09,33,17.80
2009,08,03,09,34,17.80
2009,08,03,09,35,17.80
2009,08,03,09,36,17.80
2009,08,03,09,37,17.90
2009,08,03,09,38,17.90
2009,08,03,09,39,17.90
2009,08,03,09,40,18.00
2009,08,03,09,41,18.10
2009,08,03,09,42,18.10
2009,08,03,09,43,18.20
2009,08,03,09,44,18.20
2009,08,03,09,45,18.30
2009,08,03,09,46,18.30
2009,08,03,09,47,18.40
2009,08,03,09,48,18.40
2009,08,03,09,49,18.50
2009,08,03,09,50,18.50
2009,08,03,09,51,18.50
2009,08,03,09,52,18.50
2009,08,03,09,53,18.60
2009,08,03,09,54,18.60
2009,08,03,09,55,18.60
2009,08,03,09,56,18.70
2009,08,03,09,57,18.80
2009,08,03,09,58,18.90
2009,08,03,09,59,18.90
2009,08,03,10,00,19.00
2009,08,03,10,01,19.00
2009,08,03,10,02,19.00
2009,08,03,10,03,19.00
2009,08,03,10,04,19.00
2009,08,03,10,05,19.00
2009,08,03,10,06,19.00
2009,08,03,10,07,19.00
2009,08,03,10,08,19.10
2009,08,03,10,09,19.10
2009,08,03,10,10,19.10
2009,08,03,10,11,19.10
2009,08,03,10,12,19.20
2009,08,03,10,13,19.20
2009,08,03,10,14,19.20
2009,08,03,10,15,19.10
2009,08,03,10,16,19.10
2009,08,03,10,17,19.00
2009,08,03,10,18,19.00
2009,08,03,10,19,18.90
2009,08,03,10,20,18.90
2009,08,03,10,21,18.90
2009,08,03,10,22,18.90
2009,08,03,10,23,18.90
2009,08,03,10,24,18.90
2009,08,03,10,25,18.90
2009,08,03,10,26,18.90
2009,08,03,10,27,19.00
2009,08,03,10,28,19.10
2009,08,03,10,29,19.10
2009,08,03,10,30,19.20
2009,08,03,10,31,19.20
2009,08,03,10,32,19.30
2009,08,03,10,33,19.30
2009,08,03,10,34,19.40
2009,08,03,10,35,19.40
2009,08,03,10,36,19.40
2009,08,03,10,37,19.50
2009,08,03,10,38,19.60
2009,08,03,10,39,19.60
2009,08,03,10,40,19.70
2009,08,03,10,41,19.70
2009,08,03,10,42,19.80
2009,08,03,10,43,19.80
2009,08,03,10,44,19.90
2009,08,03,10,45,20.00
2009,08,03,10,46,20.00
2009,08,03,10,47,20.10
2009,08,03,10,48,20.20
2009,08,03,10,49,20.20
2009,08,03,10,50,20.20
2009,08,03,10,51,20.20
2009,08,03,10,52,20.30
2009,08,03,10,53,20.20
2009,08,03,10,54,20.20
2009,08,03,10,55,20.20
2009,08,03,10,56,20.20
2009,08,03,10,57,20.20
2009,08,03,10,58,20.20
2009,08,03,10,59,20.20
2009,08,03,11,00,20.20
2009,08,03,11,01,20.30
2009,08,03,11,02,20.30
2009,08,03,11,03,20.30
2009,08,03,11,04,20.40
2009,08,03,11,05,20.40
2009,08,03,11,06,20.40
2009,08,03,11,07,20.40
2009,08,03,11,08,20.50
2009,08,03,11,09,20.50
2009,08,03,11,10,20.60
2009,08,03,11,11,20.60
2009,08,03,11,12,20.60
2009,08,03,11,13,20.70
2009,08,03,11,14,20.70
2009,08,03,11,15,20.70
2009,08,03,11,16,20.80
2009,08,03,11,17,20.80
2009,08,03,11,18,20.80
2009,08,03,11,19,20.80
2009,08,03,11,20,20.80
2009,08,03,11,21,20.80
2009,08,03,11,22,20.80
2009,08,03,11,23,20.80
2009,08,03,11,24,20.90
2009,08,03,11,25,20.90
2009,08,03,11,26,21.10
2009,08,03,11,27,21.10
2009,08,03,11,28,21.20
2009,08,03,11,29,21.30
2009,08,03,11,30,21.30
2009,08,03,11,31,21.30
2009,08,03,11,32,21.20
2009,08,03,11,33,21.20
2009,08,03,11,34,21.20
2009,08,03,11,35,21.20
2009,08,03,11,36,21.10
2009,08,03,11,37,21.10
2009,08,03,11,38,21.00
2009,08,03,11,39,21.00
2009,08,03,11,40,20.90
2009,08,03,11,41,20.90
2009,08,03,11,42,20.90
2009,08,03,11,43,21.00
2009,08,03,11,44,21.00
2009,08,03,11,45,21.10
2009,08,03,11,46,21.10
2009,08,03,11,47,21.20
2009,08,03,11,48,21.20
2009,08,03,11,49,21.30
2009,08,03,11,50,21.30
2009,08,03,11,51,21.40
2009,08,03,11,52,21.40
2009,08,03,11,53,21.50
2009,08,03,11,54,21.60
2009,08,03,11,55,21.60
2009,08,03,11,56,21.60
2009,08,03,11,57,21.60
2009,08,03,11,58,21.70
2009,08,03,11,59,21.70
2009,08,03,12,00,21.80
2009,08,03,12,01,21.80
2009,08,03,12,02,21.80
2009,08,03,12,03,21.80
2009,08,03,12,04,21.70
2009,08,03,12,05,21.70
2009,08,03,12,06,21.60
2009,08,03,12,07,21.70
2009,08,03,12,08,21.70
2009,08,03,12,09,21.70
2009,08,03,12,10,21.70
2009,08,03,12,11,21.60
2009,08,03,12,12,21.60
2009,08,03,12,13,21.70
2009,08,03,12,14,21.80
2009,08,03,12,15,21.80
2009,08,03,12,16,21.90
2009,08,03,12,17,22.00
2009,08,03,12,18,22.00
2009,08,03,12,19,22.10
2009,08,03,12,20,22.20
2009,08,03,12,21,22.30
2009,08,03,12,22,22.30
2009,08,03,12,23,22.30
2009,08,03,12,24,22.30
2009,08,03,12,25,22.40
2009,08,03,12,26,22.40
2009,08,03,12,27,22.40
2009,08,03,12,28,22.40
2009,08,03,12,29,22.40
2009,08,03,12,30,22.50
2009,08,03,12,31,22.50
2009,08,03,12,32,22.50
2009,08,03,12,33,22.50
2009,08,03,12,34,22.50
2009,08,03,12,35,22.50
2009,08,03,12,36,22.40
2009,08,03,12,37,22.40
2009,08,03,12,38,22.40
2009,08,03,12,39,22.40
2009,08,03,12,40,22.40
2009,08,03,12,41,22.40
2009,08,03,12,42,22.40
2009,08,03,12,43,22.40
2009,08,03,12,44,22.40
2009,08,03,12,45,22.40
2009,08,03,12,46,22.40
2009,08,03,12,47,22.40
2009,08,03,12,48,22.40
2009,08,03,12,49,22.40
2009,08,03,12,50,22.30
2009,08,03,12,51,22.20
2009,08,03,12,52,22.20
2009,08,03,12,53,22.10
2009,08,03,12,54,22.10
2009,08,03,12,55,22.00
2009,08,03,12,56,22.00
2009,08,03,12,57,22.00
2009,08,03,12,58,22.10
2009,08,03,12,59,22.20
2009,08,03,13,00,22.30
2009,08,03,13,01,22.40
2009,08,03,13,02,22.40
2009,08,03,13,03,22.50
2009,08,03,13,04,22.60
2009,08,03,13,05,22.70
2009,08,03,13,06,22.80
2009,08,03,13,07,22.90
2009,08,03,13,08,23.00
2009,08,03,13,09,23.10
2009,08,03,13,10,23.20
2009,08,03,13,11,23.30
2009,08,03,13,12,23.40
2009,08,03,13,13,23.60
2009,08,03,13,14,23.70
2009,08,03,13,15,23.70
2009,08,03,13,16,23.70
2009,08,03,13,17,23.70
2009,08,03,13,18,23.70
2009,08,03,13,19,23.60
2009,08,03,13,20,23.50
2009,08,03,13,21,23.50
2009,08,03,13,22,23.50
2009,08,03,13,23,23.40
2009,08,03,13,24,23.40
2009,08,03,13,25,23.40
2009,08,03,13,26,23.40
2009,08,03,13,27,23.40
2009,08,03,13,28,23.40
2009,08,03,13,29,23.40
2009,08,03,13,30,23.40
2009,08,03,13,31,23.30
2009,08,03,13,32,23.30
2009,08,03,13,33,23.30
2009,08,03,13,34,23.40
2009,08,03,13,35,23.40
2009,08,03,13,36,23.40
2009,08,03,13,37,23.50
2009,08,03,13,38,23.50
2009,08,03,13,39,23.60
2009,08,03,13,40,23.70
2009,08,03,13,41,23.80
2009,08,03,13,42,23.80
2009,08,03,13,43,23.70
2009,08,03,13,44,23.70
2009,08,03,13,45,23.70
2009,08,03,13,46,23.70
2009,08,03,13,47,23.60
2009,08,03,13,48,23.60
2009,08,03,13,49,23.50
2009,08,03,13,50,23.40
2009,08,03,13,51,23.40
2009,08,03,13,52,23.30
2009,08,03,13,53,23.30
2009,08,03,13,54,23.30
2009,08,03,13,55,23.30
2009,08,03,13,56,23.30
2009,08,03,13,57,23.30
2009,08,03,13,58,23.30
2009,08,03,13,59,23.30
2009,08,03,14,00,23.30
2009,08,03,14,01,23.30
2009,08,03,14,02,23.30
2009,08,03,14,03,23.40
2009,08,03,14,04,23.40
2009,08,03,14,05,23.40
2009,08,03,14,06,23.40
2009,08,03,14,07,23.40
2009,08,03,14,08,23.40
2009,08,03,14,09,23.40
2009,08,03,14,10,23.30
2009,08,03,14,11,23.20
2009,08,03,14,12,23.10
2009,08,03,14,13,22.90
2009,08,03,14,14,22.80
2009,08,03,14,15,22.80
2009,08,03,14,16,22.80
2009,08,03,14,17,22.80
2009,08,03,14,18,22.90
2009,08,03,14,19,23.00
2009,08,03,14,20,23.10
2009,08,03,14,21,23.20
2009,08,03,14,22,23.40
2009,08,03,14,23,23.50
2009,08,03,14,24,23.60
2009,08,03,14,25,23.60
2009,08,03,14,26,23.70
2009,08,03,14,27,23.80
2009,08,03,14,28,23.90
2009,08,03,14,29,24.00
2009,08,03,14,30,24.00
2009,08,03,14,31,24.00
2009,08,03,14,32,24.00
2009,08,03,14,33,24.00
2009,08,03,14,34,24.00
2009,08,03,14,35,24.10
2009,08,03,14,36,24.20
2009,08,03,14,37,24.30
2009,08,03,14,38,24.40
2009,08,03,14,39,24.50
2009,08,03,14,40,24.60
2009,08,03,14,41,24.70
2009,08,03,14,42,24.70
2009,08,03,14,43,24.80
2009,08,03,14,44,24.90
2009,08,03,14,45,24.90
2009,08,03,14,46,24.90
2009,08,03,14,47,24.90
2009,08,03,14,48,24.90
2009,08,03,14,49,24.90
2009,08,03,14,50,24.90
2009,08,03,14,51,24.80
2009,08,03,14,52,24.80
2009,08,03,14,53,24.70
2009,08,03,14,54,24.70
2009,08,03,14,55,24.70
2009,08,03,14,56,24.70
2009,08,03,14,57,24.70
2009,08,03,14,58,24.60
2009,08,03,14,59,24.60
2009,08,03,15,00,24.60
2009,08,03,15,01,24.60
2009,08,03,15,02,24.60
2009,08,03,15,03,24.60
2009,08,03,15,04,24.60
2009,08,03,15,05,24.60
2009,08,03,15,06,24.60
2009,08,03,15,07,24.70
2009,08,03,15,08,24.80
2009,08,03,15,09,24.90
2009,08,03,15,10,25.00
2009,08,03,15,11,25.00
2009,08,03,15,12,25.10
2009,08,03,15,13,25.20
2009,08,03,15,14,25.20
2009,08,03,15,15,25.20
2009,08,03,15,16,25.30
2009,08,03,15,17,25.30
2009,08,03,15,18,25.30
2009,08,03,15,19,25.30
2009,08,03,15,20,25.30
2009,08,03,15,21,25.30
2009,08,03,15,22,25.30
2009,08,03,15,23,25.20
2009,08,03,15,24,25.30
2009,08,03,15,25,25.20
2009,08,03,15,26,25.20
2009,08,03,15,27,25.30
2009,08,03,15,28,25.30
2009,08,03,15,29,25.30
2009,08,03,15,30,25.30
2009,08,03,15,31,25.30
2009,08,03,15,32,25.30
2009,08,03,15,33,25.30
2009,08,03,15,34,25.30
2009,08,03,15,35,25.30
2009,08,03,15,36,25.40
2009,08,03,15,37,25.40
2009,08,03,15,38,25.50
2009,08,03,15,39,25.60
2009,08,03,15,40,25.70
2009,08,03,15,41,25.80
2009,08,03,15,42,25.80
2009,08,03,15,43,25.90
2009,08,03,15,44,25.90
2009,08,03,15,45,25.90
2009,08,03,15,46,25.90
2009,08,03,15,47,25.90
2009,08,03,15,48,25.90
2009,08,03,15,49,25.90
2009,08,03,15,50,25.80
2009,08,03,15,51,25.80
2009,08,03,15,52,25.80
2009,08,03,15,53,25.90
2009,08,03,15,54,25.90
2009,08,03,15,55,25.90
2009,08,03,15,56,25.90
2009,08,03,15,57,25.80
2009,08,03,15,58,25.60
2009,08,03,15,59,25.40
2009,08,03,16,00,25.20
2009,08,03,16,01,25.10
2009,08,03,16,02,25.00
2009,08,03,16,03,24.90
2009,08,03,16,04,24.80
2009,08,03,16,05,24.70
2009,08,03,16,06,24.50
2009,08,03,16,07,24.40
2009,08,03,16,08,24.30
2009,08,03,16,09,24.20
2009,08,03,16,10,24.10
2009,08,03,16,11,24.10
2009,08,03,16,12,24.10
2009,08,03,16,13,24.20
2009,08,03,16,14,24.20
2009,08,03,16,15,24.20
2009,08,03,16,16,24.20
2009,08,03,16,17,24.30
2009,08,03,16,18,24.30
2009,08,03,16,19,24.40
2009,08,03,16,20,24.50
2009,08,03,16,21,24.50
2009,08,03,16,22,24.60
2009,08,03,16,23,24.70
2009,08,03,16,24,24.80
2009,08,03,16,25,24.80
2009,08,03,16,26,25.00
2009,08,03,16,27,25.10
2009,08,03,16,28,25.20
2009,08,03,16,29,25.30
2009,08,03,16,30,25.50
2009,08,03,16,31,25.60
2009,08,03,16,32,25.80
2009,08,03,16,33,25.90
2009,08,03,16,34,26.10
2009,08,03,16,35,26.20
2009,08,03,16,36,26.40
2009,08,03,16,37,26.40
2009,08,03,16,38,26.40
2009,08,03,16,39,26.50
2009,08,03,16,40,26.60
2009,08,03,16,41,26.60
2009,08,03,16,42,26.70
2009,08,03,16,43,26.70
2009,08,03,16,44,26.80
2009,08,03,16,45,26.90
2009,08,03,16,46,27.10
2009,08,03,16,47,27.20
2009,08,03,16,48,27.30
2009,08,03,16,49,27.40
2009,08,03,16,50,27.50
2009,08,03,16,51,27.60
2009,08,03,16,52,27.70
2009,08,03,16,53,27.80
2009,08,03,16,54,27.90
2009,08,03,16,55,27.90
2009,08,03,16,56,27.90
2009,08,03,16,57,27.80
2009,08,03,16,58,27.70
2009,08,03,16,59,27.70
2009,08,03,17,00,27.70
2009,08,03,17,01,27.80
2009,08,03,17,02,27.80
2009,08,03,17,03,27.80
2009,08,03,17,04,27.80
2009,08,03,17,05,27.80
2009,08,03,17,06,27.80
2009,08,03,17,07,27.80
2009,08,03,17,08,27.80
2009,08,03,17,09,27.90
2009,08,03,17,10,27.90
2009,08,03,17,11,27.90
2009,08,03,17,12,27.90
2009,08,03,17,13,27.90
2009,08,03,17,14,27.80
2009,08,03,17,15,27.80
2009,08,03,17,16,27.90
2009,08,03,17,17,28.00
2009,08,03,17,18,28.00
2009,08,03,17,19,28.10